Tracking 29892 objects as of 21-Nov-2024
HD Live streaming from Space Station
objects crossing your sky now

FENGYUN 1C DEB

Track FENGYUN 1C DEB now!
10-day predictions


NORAD ID: 30631
Int'l Code: 1999-025ANN
Perigee: 667.4 km
Apogee: 712.0 km
Inclination: 99.0 °
Period: 98.4 minutes
Semi major axis: 7060 km
RCS: 0.03 m2 (small)
Launch date: May 10, 1999
Source: People's Republic of China (PRC)
Launch site: Taiyaun Space Center, China (TSC)

Note: This is SATELLITE DEBRIS
Your satellite tracking list
Your tracking list is empty




NASA's NSSDC Master Catalog

Two Line Element Set (TLE):
1 30631U 99025ANN 24326.11902613  .00048570  00000-0  92904-2 0  9998
2 30631  99.0314 219.9925 0031568 323.3417  36.5622 14.63304540923440
Source of the keplerian elements: AFSPC